EW6851 Weather Reports


time (UTC)temp
F
wind
direction
speed
knots
gust
knots
rain 1hr
in
rain 24hr
in
rain mn
in
humidity
%
barometer
mb
20260504050630 56 119 0.0 1.7 0.00 0.00 0.00 59 1019.9
20260504050130 56 192 0.9 3.5 0.00 0.00 0.00 58 1019.9
20260504045627 56 215 3.5 6.1 0.00 0.00 0.00 58 1019.8
20260504045130 56 158 1.7 5.2 0.00 0.00 0.00 58 1019.8
20260504044627 56 144 2.6 4.3 0.00 0.00 0.00 58 1019.8
20260504044127 56 145 2.6 3.5 0.00 0.00 0.00 58 1019.8
20260504043633 56 175 3.5 3.5 0.00 0.00 0.00 58 1019.7
20260504043127 56 207 0.9 5.2 0.00 0.00 0.00 59 1019.7
20260504042633 55 154 0.9 5.2 0.00 0.00 0.00 59 1019.7
20260504042130 55 178 0.0 5.2 0.00 0.00 0.00 59 1019.6
20260504041630 55 114 1.7 3.5 0.00 0.00 0.00 59 1019.6
20260504041127 55 165 0.0 2.6 0.00 0.00 0.00 59 1019.6
20260504040627 55 185 1.7 4.3 0.00 0.00 0.00 59 1019.6
20260504040127 55 149 0.9 5.2 0.00 0.00 0.00 59 1019.5
20260504035627 55 141 0.0 5.2 0.00 0.00 0.00 59 1019.4
20260504035127 55 157 1.7 6.1 0.00 0.00 0.00 59 1019.5
20260504034633 55 162 2.6 4.3 0.00 0.00 0.00 59 1019.5
20260504034128 55 140 4.3 5.2 0.00 0.00 0.00 59 1019.5
20260504033627 55 149 0.9 4.3 0.00 0.00 0.00 59 1019.5
20260504033127 55 138 3.5 4.3 0.00 0.00 0.00 59 1019.6
20260504032634 55 144 2.6 5.2 0.00 0.00 0.00 59 1019.6
20260504032133 55 156 1.7 5.2 0.00 0.00 0.00 59 1019.5
20260504031630 55 147 0.9 6.1 0.00 0.00 0.00 59 1019.6
20260504031127 55 148 2.6 4.3 0.00 0.00 0.00 59 1019.6
20260504030627 55 128 3.5 7.0 0.00 0.00 0.00 60 1019.6
20260504030127 55 161 2.6 5.2 0.00 0.00 0.00 60 1019.6
20260504025630 55 126 4.3 6.1 0.00 0.00 0.00 60 1019.7
20260504025127 55 166 0.0 4.3 0.00 0.00 0.00 60 1019.7
20260504024636 55 155 0.0 6.1 0.00 0.00 0.00 60 1019.7
20260504024130 55 167 0.0 6.1 0.00 0.00 0.00 60 1019.8
20260504023628 55 156 0.0 6.1 0.00 0.00 0.00 60 1019.8
20260504023127 55 154 0.9 5.2 0.00 0.00 0.00 60 1019.8
20260504022627 55 168 1.7 6.1 0.00 0.00 0.00 60 1019.8
20260504022127 55 130 2.6 4.3 0.00 0.00 0.00 60 1019.8
20260504021627 55 170 0.0 4.3 0.00 0.00 0.00 60 1019.8
20260504021130 55 125 0.9 3.5 0.00 0.00 0.00 60 1019.8
20260504020630 55 148 2.6 4.3 0.00 0.00 0.00 60 1019.7
20260504020125 55 166 0.9 3.5 0.00 0.00 0.00 60 1019.7
20260504015631 55 114 2.6 4.3 0.00 0.00 0.00 60 1019.6
20260504015124 55 162 2.6 4.3 0.00 0.00 0.00 60 1019.6
20260504014625 55 190 2.6 4.3 0.00 0.00 0.00 60 1019.5
20260504014128 55 164 0.9 4.3 0.00 0.00 0.00 60 1019.5
20260504013625 55 159 0.9 5.2 0.00 0.00 0.00 60 1019.4
20260504013131 55 176 0.0 4.3 0.00 0.00 0.00 60 1019.4
20260504012628 56 157 1.7 5.2 0.00 0.00 0.00 60 1019.4
20260504012125 56 137 2.6 3.5 0.00 0.00 0.00 60 1019.4
20260504011625 56 120 0.0 5.2 0.00 0.00 0.00 60 1019.5
20260504011125 56 140 5.2 6.1 0.00 0.00 0.00 60 1019.5
20260504010625 56 152 0.0 7.0 0.00 0.00 0.00 60 1019.6
20260504010128 55 143 0.0 7.0 0.00 0.00 0.00 60 1019.7
20260504005628 55 136 4.3 6.1 0.00 0.00 0.00 60 1019.7
20260504005125 55 156 0.0 5.2 0.00 0.00 0.00 60 1019.8
20260504004631 56 143 0.9 5.2 0.00 0.00 0.00 61 1019.8
20260504004125 56 161 0.0 6.1 0.00 0.00 0.00 61 1019.7
20260504003625 56 137 2.6 4.3 0.00 0.00 0.00 61 1019.8
20260504003125 56 169 2.6 5.2 0.00 0.00 0.00 61 1019.8
20260504002628 56 134 0.9 4.3 0.00 0.00 0.00 62 1019.8
20260504002128 55 136 2.6 4.3 0.00 0.00 0.00 62 1019.8
20260504001625 55 152 0.9 6.1 0.00 0.00 0.00 63 1019.8
20260504001131 56 157 2.6 5.2 0.00 0.00 0.00 63 1019.9
20260504000625 56 175 3.5 4.3 0.00 0.00 0.00 63 1019.9
20260504000128 56 150 1.7 5.2 0.00 0.00 0.00 63 1020.0
20260503235625 56 161 1.7 6.1 0.00 0.00 0.00 63 1020.0
20260503235128 56 167 5.2 6.1 0.00 0.00 0.00 63 1020.0
20260503234625 56 153 5.2 5.2 0.00 0.00 0.00 63 1020.1
20260503234126 56 152 3.5 4.3 0.00 0.00 0.00 63 1020.1
20260503233625 56 132 0.9 3.5 0.00 0.00 0.00 64 1020.2
20260503233125 56 157 4.3 5.2 0.00 0.00 0.00 64 1020.2
20260503232628 56 123 1.7 4.3 0.00 0.00 0.00 64 1020.2
20260503232128 56 178 0.0 4.3 0.00 0.00 0.00 65 1020.2
20260503231628 56 182 0.9 5.2 0.00 0.00 0.00 65 1020.2
20260503231128 56 136 3.5 6.1 0.00 0.00 0.00 66 1020.2
20260503230628 56 161 0.0 6.1 0.00 0.00 0.00 66 1020.3
20260503230125 56 119 4.3 6.1 0.00 0.00 0.00 66 1020.4
20260503225631 57 138 1.7 6.1 0.00 0.00 0.00 66 1020.5
20260503225128 57 202 0.0 5.2 0.00 0.00 0.00 66 1020.5
20260503224625 57 170 2.6 5.2 0.00 0.00 0.00 67 1020.6
20260503224125 57 150 2.6 5.2 0.00 0.00 0.00 67 1020.6
20260503223625 57 171 1.7 3.5 0.00 0.00 0.00 67 1020.6
20260503223125 57 150 3.5 4.3 0.00 0.00 0.00 68 1020.6
20260503222628 57 166 2.6 4.3 0.00 0.00 0.00 68 1020.7
20260503222128 57 161 0.0 5.2 0.00 0.00 0.00 68 1020.7
20260503221625 57 164 0.9 5.2 0.00 0.00 0.00 68 1020.6
20260503221125 57 128 3.5 6.1 0.00 0.00 0.00 69 1020.6
20260503220632 57 161 3.5 5.2 0.00 0.00 0.00 69 1020.6
20260503220128 57 163 0.0 3.5 0.00 0.00 0.00 69 1020.5
20260503215625 57 161 2.6 5.2 0.00 0.00 0.00 69 1020.5
20260503215125 57 112 0.9 6.1 0.00 0.00 0.00 70 1020.5
20260503214628 57 129 2.6 5.2 0.00 0.00 0.00 70 1020.6
20260503214125 58 157 3.5 5.2 0.00 0.00 0.00 70 1020.5
20260503213631 58 165 3.5 6.1 0.00 0.00 0.00 70 1020.5
20260503213134 58 116 0.0 5.2 0.00 0.00 0.00 70 1020.5
20260503212628 58 161 0.9 5.2 0.00 0.00 0.00 71 1020.5
20260503212128 58 167 4.3 6.1 0.00 0.00 0.00 70 1020.5
20260503211625 58 165 3.5 5.2 0.00 0.00 0.00 71 1020.6
20260503211125 58 159 2.6 6.1 0.00 0.00 0.00 71 1020.6
20260503210625 58 150 4.3 6.1 0.00 0.00 0.00 71 1020.7
20260503210131 58 167 1.7 6.1 0.00 0.00 0.00 71 1020.7
20260503205629 58 127 1.7 6.1 0.00 0.00 0.00 72 1020.7
20260503205128 58 169 1.7 4.3 0.00 0.00 0.00 72 1020.7
20260503204625 58 156 1.7 4.3 0.00 0.00 0.00 73 1020.7
20260503204134 58 132 2.6 5.2 0.00 0.00 0.00 73 1020.7
20260503203628 58 150 3.5 5.2 0.00 0.00 0.00 73 1020.7
20260503203125 58 144 3.5 6.1 0.00 0.00 0.00 74 1020.7
20260503202628 58 130 2.6 5.2 0.00 0.00 0.00 74 1020.7
20260503202125 59 123 4.3 6.1 0.00 0.00 0.00 73 1020.7
20260503201625 59 163 2.6 5.2 0.00 0.00 0.00 73 1020.7
20260503201129 59 148 3.5 6.1 0.00 0.00 0.00 73 1020.6
20260503200631 59 178 1.7 4.3 0.00 0.00 0.00 73 1020.6
20260503200125 59 173 2.6 5.2 0.00 0.00 0.00 73 1020.6
20260503195628 59 130 1.7 4.3 0.00 0.00 0.00 73 1020.6
20260503195125 59 145 2.6 6.1 0.00 0.00 0.00 73 1020.6
20260503194631 60 119 2.6 7.0 0.00 0.00 0.00 73 1020.6
20260503194125 60 150 0.9 7.0 0.00 0.00 0.00 73 1020.6
20260503193625 60 82 0.9 5.2 0.00 0.00 0.00 74 1020.6
20260503193128 60 138 0.0 5.2 0.00 0.00 0.00 74 1020.6
20260503192629 60 107 1.7 4.3 0.00 0.00 0.00 74 1020.5
20260503192131 60 156 1.7 7.0 0.00 0.00 0.00 74 1020.5
20260503191625 60 157 2.6 6.1 0.00 0.00 0.00 76 1020.5
20260503191125 60 124 0.0 5.2 0.00 0.00 0.00 76 1020.5
20260503190625 61 127 4.3 6.1 0.00 0.00 0.00 77 1020.5
20260503190131 61 167 1.7 5.2 0.00 0.00 0.00 77 1020.5
20260503185628 62 159 0.9 4.3 0.00 0.00 0.00 77 1020.4
20260503185128 62 175 0.0 2.6 0.00 0.00 0.00 77 1020.3
20260503184625 62 138 0.0 3.5 0.00 0.00 0.00 76 1020.2
20260503184125 63 146 3.5 4.3 0.00 0.00 0.00 75 1020.1
20260503183625 64 179 1.7 2.6 0.00 0.00 0.00 74 1020.1
20260503183128 64 147 0.0 0.0 0.00 0.00 0.00 74 1020.0
20260503182631 64 192 0.0 0.0 0.00 0.00 0.00 74 1020.0
20260503182128 64 192 0.0 1.7 0.00 0.00 0.00 73 1019.9
20260503181626 64 302 0.0 1.7 0.00 0.00 0.00 73 1019.9
20260503181128 64 302 0.0 0.0 0.00 0.00 0.00 72 1019.9
20260503180628 64 316 0.0 1.7 0.00 0.00 0.00 72 1019.8
20260503180125 64 316 0.0 2.6 0.00 0.00 0.00 71 1019.8
20260503175631 64 316 0.0 2.6 0.00 0.00 0.00 70 1019.7
20260503175128 64 325 0.9 1.7 0.00 0.00 0.00 70 1019.6
20260503174625 65 333 0.0 2.6 0.00 0.00 0.00 70 1019.6
20260503174128 65 341 2.6 3.5 0.00 0.00 0.00 70 1019.6
20260503173631 65 279 1.7 3.5 0.00 0.00 0.00 69 1019.7
20260503173128 65 288 0.0 4.3 0.00 0.00 0.00 69 1019.7
20260503172631 66 294 3.5 3.5 0.00 0.00 0.00 68 1019.7
20260503172128 66 263 1.7 4.3 0.00 0.00 0.00 68 1019.7
20260503171625 67 300 2.6 4.3 0.00 0.00 0.00 67 1019.6
20260503171128 67 296 2.6 4.3 0.00 0.00 0.00 67 1019.6
20260503170634 67 284 3.5 5.2 0.00 0.00 0.00 67 1019.6
20260503170125 67 234 0.9 4.3 0.00 0.00 0.00 67 1019.5
20260503160125 68 293 1.7 7.0 0.00 0.00 0.00 66 1019.7
20260503150625 69 255 4.3 5.2 0.00 0.00 0.00 63 1019.9
20260503150125 69 251 0.9 7.0 0.00 0.00 0.00 63 1019.9
20260503140128 68 231 0.0 8.7 0.00 0.00 0.00 64 1020.3
20260503131125 69 279 6.1 12.2 0.00 0.00 0.00 60 1020.5
20260503130635 69 271 6.1 10.4 0.00 0.00 0.00 62 1020.6
20260503130132 68 30 1.7 7.8 0.00 0.00 0.00 61 1020.5
20260503120129 68 260 8.7 12.2 0.00 0.00 0.00 61 1021.0
20260503110626 68 284 4.3 8.7 0.00 0.00 0.00 61 1021.2
20260503110126 68 266 3.5 8.7 0.00 0.00 0.00 61 1021.3
20260503100126 67 273 8.7 14.8 0.00 0.00 0.00 61 1021.7
20260503090129 67 292 5.2 12.2 0.00 0.00 0.00 57 1021.8
20260503081626 67 269 4.3 7.8 0.00 0.00 0.00 55 1021.6
20260503081129 66 263 0.0 7.0 0.00 0.00 0.00 56 1021.6
20260503080629 66 277 5.2 8.7 0.00 0.00 0.00 55 1021.6
20260503080133 66 311 3.5 8.7 0.00 0.00 0.00 55 1021.5
20260503072632 65 342 3.5 5.2 0.00 0.00 0.00 57 1021.4
20260503072126 65 256 3.5 7.0 0.00 0.00 0.00 57 1021.4
20260503071632 64 236 0.9 7.8 0.00 0.00 0.00 57 1021.5
20260503071126 64 232 4.3 6.1 0.00 0.00 0.00 58 1021.4
20260503070626 64 228 1.7 6.1 0.00 0.00 0.00 57 1021.4
20260503070126 64 298 2.6 7.0 0.00 0.00 0.00 58 1021.4
20260503060129 60 134 1.7 3.5 0.00 0.00 0.00 68 1021.3
20260503054626 59 161 3.5 3.5 0.00 0.00 0.00 69 1021.3
20260503054129 59 144 0.0 2.6 0.00 0.00 0.00 70 1021.2
20260503053629 58 196 0.0 1.7 0.00 0.00 0.00 71 1021.2
20260503053129 58 169 0.0 3.5 0.00 0.00 0.00 71 1021.2
20260503052626 57 173 0.0 3.5 0.00 0.00 0.00 72 1021.1
20260503052129 57 171 0.0 2.6 0.00 0.00 0.00 73 1021.1